Content
SEND FEEDBACK

Daily
Averages
Monthly
Summary
United States of America

GLENS FALLS, NEW YORK


Home > North America > United States > New York
Elevation: 321 feet     Latitude: 43 21N     Longitude: 073 37W

WEATHER
 
SELECT A DAY
Number of Records: 212,848;   Date Range: 1/1/95 - 7/22/14
 
SHARE

PRINT THIS DATA

[ ← Previous Day ]
WEATHER ALMANAC - OCTOBER 12, 2013
[ Next Day → ]
[ °C ]   °F
Weather ElementAverageHighLow
Temperature47.4 °F73 °F (1:53 pm)35.6 °F (5:24 am)
Dewpoint42.3 °F51.1 °F (11:53 am)35.6 °F (5:24 am)
Humidity85.2 %100 % (1:32 am)46 % (1:53 pm)
Barometer30.25 in30.37 in (11:53 pm)30.17 in (12:38 am)
Wind Speed1.8 mph11.5 mph (3:53 pm)
Wind Gust16.1 mph (3:53 pm)
Weather ElementAverage
Visibility5.7 mi
Wind DirectionNE (49.3 °)

Weather ElementTotal
Precipitation---
Heating Degree Days10.7 (Base 65)
Growing Degree Days4.3 (Base 50)
Averaged from 44 records on October 12, 2013
WEATHER CONDITIONS BREAKOUT
WIND DIRECTION BREAKOUT
WEATHER BY HOUR - OCTOBER 12, 2013
[ °C ]   °F
Local TimeTemperatureDewpointHumidityBarometerVisibilityWind DirectionWind SpeedGust SpeedPrecipitationEventsConditions
12:38 AM39.2 °F37.4 °F93 %30.17 in1.0 miCalmMist
12:45 AM39.2 °F37.4 °F93 %30.17 in0.8 miCalmMist
12:48 AM41.0 °F39.2 °F93 %30.17 in1.5 miCalmPartly Cloudy
12:53 AM42.1 °F39.9 °F92 %30.18 in8.0 miNNE (30°)3.5 mphPartly Cloudy
1:32 AM39.2 °F39.2 °F100 %30.18 in2.0 miCalmClear
1:39 AM39.2 °F39.2 °F100 %30.18 in1.5 miCalmClear
1:49 AM41.0 °F39.2 °F93 %30.18 in3.0 miCalmClear
1:50 AM41.0 °F39.9 °F96 %30.19 in4.0 miCalmClear
2:53 AM39.0 °F37.0 °F93 %30.19 in10.0 miCalmClear
3:00 AM39.2 °F37.4 °F93 %30.18 in1.8 miCalmClear
3:10 AM37.4 °F37.4 °F100 %30.18 in0.5 miCalmFogFog
3:22 AM37.4 °F37.4 °F100 %30.19 in1.5 miCalmClear
3:35 AM39.2 °F37.4 °F93 %30.19 in3.0 miCalmClear
3:42 AM39.2 °F37.4 °F93 %30.19 in2.0 miCalmClear
3:53 AM39.0 °F37.9 °F96 %30.20 in1.5 miCalmClear
4:00 AM37.4 °F37.4 °F100 %30.19 in3.0 miCalmClear
4:08 AM37.4 °F37.4 °F100 %30.20 in1.8 miCalmClear
4:21 AM37.4 °F37.4 °F100 %30.20 in3.0 miCalmClear
4:53 AM39.0 °F37.0 °F93 %30.22 in10.0 miCalmClear
5:24 AM35.6 °F35.6 °F100 %30.21 in1.0 miCalmClear
5:50 AM37.4 °F35.6 °F93 %30.21 in3.0 miCalmClear
5:53 AM37.9 °F37.0 °F97 %30.23 in3.0 miCalmClear
6:53 AM39.0 °F37.0 °F93 %30.25 in9.0 miCalmClear
7:53 AM41.0 °F39.9 °F96 %30.27 in9.0 miCalmClear
8:53 AM51.1 °F46.0 °F83 %30.27 in10.0 miEast (80°)3.5 mphClear
9:53 AM59.0 °F48.0 °F67 %30.28 in10.0 miNorth (350°)5.8 mphClear
10:53 AM64.0 °F50.0 °F60 %30.27 in10.0 miNorth (350°)4.6 mphClear
11:53 AM69.1 °F51.1 °F53 %30.27 in10.0 miNNW (340°)3.5 mphClear
12:53 PM71.1 °F51.1 °F49 %30.26 in10.0 miVariable4.6 mphClear
1:53 PM73.0 °F51.1 °F46 %30.25 in10.0 miEast (90°)4.6 mphClear
2:53 PM72.0 °F51.1 °F48 %30.25 in10.0 miEast (80°)9.2 mphMostly Cloudy
3:53 PM71.1 °F51.1 °F49 %30.26 in10.0 miESE (110°)11.5 mph16.1 mphScattered Clouds
4:53 PM69.1 °F48.9 °F49 %30.27 in10.0 miESE (120°)9.2 mphClear
5:53 PM64.9 °F48.9 °F56 %30.29 in10.0 miSE (130°)6.9 mphClear
6:53 PM61.0 °F48.9 °F64 %30.31 in10.0 miSSE (150°)4.6 mphClear
7:53 PM57.0 °F48.9 °F74 %30.34 in10.0 miSouth (180°)3.5 mphClear
8:53 PM53.1 °F48.0 °F83 %30.35 in10.0 miSSE (160°)3.5 mphClear
9:53 PM48.0 °F45.0 °F89 %30.35 in10.0 miCalmClear
10:53 PM46.9 °F46.0 °F97 %30.36 in9.0 miCalmClear
11:12 PM44.6 °F44.6 °F100 %30.35 in1.5 miCalmClear
11:21 PM44.6 °F44.6 °F100 %30.35 in0.5 miCalmFogFog
11:32 PM44.6 °F42.8 °F93 %30.36 in2.5 miCalmClear
11:39 PM44.6 °F42.8 °F93 %30.36 in10.0 miCalmClear
11:53 PM44.1 °F43.0 °F96 %30.37 in1.8 miCalmClear
Hourly data recorded from KGFL, located miles away from Glens Falls, New York







STORIES FROM OUR PARTNERS